Home   Weather   Port Coquitlam   Past weeks

Flag for Canada Past Weather in Port Coquitlam, British Columbia, Canada — Yesterday and Last 2 Weeks

Now
63 °F

Mild.


Feels Like: 63 °F
Forecast: 46 / 69 °F
Wind: 6 mph from West

Location: P. Meadows Coastal Station

Current Time: Sep 27, 2016 at 6:51:41 PM

Latest Report: Sep 27, 2016 at 6:00 PM


Visibility: N/A

Pressure: 30.15 "Hg

Humidity: 68%

Dew Point: 52 °F

Location of Port CoquitlamLocation

Past Weather in Port Coquitlam — Graph

°F

Port Coquitlam Temperature Yesterday

Maximum temperature yesterday: 72 °F (at 2:00 PM)
Minimum temperature yesterday: 50 °F (at 6:00 AM)
Average temperature yesterday: 60 °F

High & Low Weather Summary for the Past Weeks

 TemperatureHumidityPressure
High77 °F (Sep 13, 4:00 PM)99% (Sep 19, 9:00 AM)30.44 "Hg (Sep 19, 9:00 AM)
Low44 °F (Sep 21, 7:00 AM)29% (Sep 12, 5:00 PM)29.81 "Hg (Sep 17, 12:00 PM)
Average58 °F78%30.09 "Hg
* Reported Sep 12 5:00 PM — Sep 27 5:00 PM, Port Coquitlam, Weather by CustomWeather, © 2016

Note: Actual official high and low records may vary slightly from our data, if they occured in-between our weather recording intervals... More about our weather records

Advertising

Port Coquitlam Weather History for the Previous 24 Hours

Scroll right to see more
 ConditionsComfort  
Time TempWeatherWind HumidityBarometerVisibility
5:00 PM
Tue, Sep 27
66 °FMild.7 mph62%30.16 "HgN/A
4:00 PM68 °FMild.3 mph57%30.16 "HgN/A
3:00 PM67 °FMild.1 mph56%30.18 "HgN/A
2:00 PM65 °FMild.3 mph62%30.19 "HgN/A
1:00 PM63 °FMild.2 mph63%30.20 "HgN/A
12:00 PM63 °FMild.5 mph67%30.22 "HgN/A
11:00 AM61 °FCool.6 mph70%30.22 "HgN/A
10:00 AM60 °FCool.6 mph72%30.21 "HgN/A
9:00 AM57 °FCool.3 mph75%30.20 "HgN/A
8:00 AM53 °FCool.3 mph86%30.18 "HgN/A
7:00 AM51 °FCool.5 mph88%30.16 "HgN/A
6:00 AM54 °FCool.3 mph85%30.15 "HgN/A
5:00 AM55 °FCool.2 mph79%30.13 "HgN/A
4:00 AM57 °FCool.1 mph90%30.11 "HgN/A
3:00 AM58 °FCool.2 mph91%30.09 "HgN/A
2:00 AM59 °FCool.1 mph91%30.08 "HgN/A
1:00 AM60 °FCool.1 mph93%30.07 "HgN/A
12:00 AM60 °FCool.1 mph94%30.05 "HgN/A
11:00 PM
Mon, Sep 26
58 °FCool.1 mph94%30.04 "HgN/A
10:00 PM61 °FCool.No wind92%30.04 "HgN/A
9:00 PM62 °FCool.No wind92%30.02 "HgN/A
8:00 PM62 °FMild.No wind92%30.02 "HgN/A
7:00 PM64 °FMild.1 mph86%30.00 "HgN/A
6:00 PM65 °FMild.1 mph85%30.01 "HgN/A
Weather by CustomWeather, © 2016

See weather overviewHow to use our weather pages